sat.trackr.live / text

‹ back to catalog

STARLINK-30315

NORAD 57708 · 2023-129L

PAYLOAD ACTIVE UNKNOWN

§ Identity

Operator
Country
US
Launch date
2023-08-27
Launch site
AFETR
Launch vehicle
Mass (kg)
RCS (m²)

Purposes: comms

External: N2YO · Heavens-Above · Gunter

§ Orbital elements

Epoch: 2026-09-20T22:28:09.043392Z

Period
94.27 min
Inclination
43.0040°
Eccentricity
0.0001297
Mean motion
15.27576975 rev/d
Perigee alt
482.2 km
Apogee alt
483.9 km
Semi-major
6,861.2 km
B*
1.4641e-5
RAAN
95.2002°
Arg perigee
276.2045°
Mean anomaly
83.8659°
Rev number
17,054

§ Raw data

STARLINK-303151 57708U 23129L   26263.93621578  .00000141  00000+0  14641-4 0  99992 57708  43.0040  95.2002 0001297 276.2045  83.8659 15.27576975170543

JSON: /api/v1/satellites/57708 · /tle

For live sub-satellite position, see the globe view (requires WebGL).

§ Visibility from observer

Set your observer location to see the next 7 days of passes ≥ 10°. The values pass through the URL so the page stays shareable.

No JS? Fill the form by hand. The geolocation button needs JavaScript.